Lid_Strength_Index
11 11 11 12 12 11 12 11 13 12 12 9 8 8 7 7 7 8 9 10 10 11 11 11 12 11 11 12 12 13 14 14 15 15 15 15 14 14 14 15 13 12 12 12
13 11 12 13 12 12 11 11 11 10 11 7 6 6 7 7 8 9 11 11 11 11 11 12 12 13 13 13 14 13 14 15 15 15 15 16 15 16 15 15 16 15 14 14
16 13 13 16 12 12 11 10 10 12 9 8 8 8 9 9 10 11 12 12 12 12 12 13 13 13 14 14 14 14 14 14 14 14 15 16 16 17 17 17 17 17 17 15
15 14 19 12 8 9 10 9 8 9 9 8 9 10 11 10 11 12 12 12 12 12 13 13 13 13 13 13 14 15 15 15 15 15 15 15 16 17 18 18 18 18 18 17
15 15 13 12 11 11 13 12 9 9 8 8 9 10 12 11 11 11 11 12 12 13 13 14 14 13 13 14 15 15 16 15 15 15 15 15 16 16 17 17 18 18 18 18
13 17 18 13 9 8 8 14 9 9 9 9 9 13 14 12 11 11 12 12 14 13 13 14 14 14 14 15 15 16 16 16 15 15 16 15 16 15 16 16 17 17 18 18
13 15 14 10 9 8 15 15 11 10 10 9 12 13 13 12 12 12 11 12 12 13 14 13 13 14 15 15 16 15 15 16 16 15 16 16 16 16 16 16 17 17 18 18
13 15 17 10 10 13 12 11 11 10 11 13 13 13 13 13 13 13 13 12 13 13 13 13 13 14 15 15 14 13 13 15 16 16 15 16 17 17 16 17 18 18 19 19
12 13 11 10 12 10 10 11 12 12 12 13 13 14 13 14 14 13 13 13 13 14 14 13 13 13 14 14 13 13 13 13 14 15 16 15 17 18 18 17 19 19 19 20
11 11 11 11 11 11 11 12 11 12 12 12 14 14 14 14 13 14 13 13 13 14 14 14 13 13 13 12 12 12 13 13 13 13 15 16 15 16 17 18 18 18 19 20
12 11 11 11 11 11 12 12 12 12 13 13 13 14 14 14 14 14 14 13 14 14 14 14 14 13 12 12 11 12 13 13 13 13 13 15 16 16 17 17 17 18 18 18
12 10 10 11 11 11 12 13 13 13 14 13 13 14 14 14 14 13 13 13 14 14 14 14 13 13 13 12 12 12 13 13 13 13 13 13 13 15 14 14 14 15 15 16
10 9 10 10 10 11 12 12 12 13 13 14 13 13 14 14 13 13 13 13 13 13 14 14 14 14 13 13 13 13 13 13 13 13 13 13 14 14 15 14 13 14 14 14
9 10 12 11 12 11 11 11 11 12 12 12 12 13 13 13 13 13 14 13 13 14 14 15 15 16 14 13 13 14 13 13 13 13 13 13 14 14 14 15 16 16 15 15
10 9 10 10 11 11 11 11 12 13 12 12 11 12 12 13 14 14 14 14 15 16 16 16 17 17 15 14 12 14 14 13 13 13 13 14 13 14 14 14 15 16 17 17
9 10 10 11 12 11 11 11 12 12 12 12 13 13 13 13 15 16 16 16 17 18 17 19 18 17 16 15 14 12 13 14 14 13 14 14 14 14 14 15 15 16 18 18
11 11 11 11 11 11 11 11 12 12 13 14 14 14 14 14 15 16 16 17 18 18 18 18 18 18 17 16 14 13 13 13 16 14 14 15 15 15 15 16 16 16 17 19
7 8 8 9 10 10 10 10 11 11 12 13 15 16 17 17 18 18 18 18 19 19 18 17 18 17 17 16 15 14 14 14 14 15 15 15 16 15 16 16 16 17 17 17
7 8 8 9 9 10 10 11 12 14 15 15 16 17 17 17 17 17 17 19 18 18 18 17 15 16 15 16 15 14 15 15 15 15 16 17 16 16 16 17 17 17 17 17
8 8 8 9 9 10 12 14 14 15 15 16 17 17 18 19 19 18 18 18 18 17 16 16 15 15 16 16 17 15 15 16 16 16 16 16 17 17 17 18 18 18 18 17
10 10 11 12 12 13 13 14 15 16 15 16 16 18 18 18 18 18 16 16 16 16 16 17 16 17 16 18 16 15 16 16 17 17 17 17 17 17 17 17 17 17 18 18
11 12 13 13 14 14 14 14 15 16 15 16 17 18 18 17 18 17 18 15 15 19 15 15 16 20 18 20 16 16 16 17 17 17 17 17 17 18 18 17 18 17 16 16
12 13 13 14 14 14 14 15 15 15 17 17 17 16 14 13 13 14 16 15 14 17 15 16 20 21 21 17 16 16 17 18 18 17 18 18 18 18 18 18 18 17 16 16
13 13 13 12 13 15 16 15 15 15 16 15 15 16 13 13 13 13 14 17 18 17 17 18 19 20 21 17 17 18 18 18 18 19 19 20 20 19 19 18 18 17 17 16
13 13 13 14 14 14 14 14 14 14 14 14 14 13 13 13 13 14 13 15 17 16 17 19 20 20 18 18 19 19 19 19 20 20 20 20 20 20 19 18 18 18 18 17
12 13 13 12 12 13 13 13 13 13 12 13 13 13 13 13 14 14 15 16 16 17 17 17 18 19 19 20 20 20 21 20 21 21 22 21 20 20 20 20 20 19 19 18
11 11 11 11 12 12 12 11 12 12 12 12 13 13 14 14 15 15 17 16 17 18 18 18 18 19 20 21 21 21 21 21 22 22 21 21 21 21 21 22 21 21 20 19